Regional Weather Roundup
Issued by NWS

Home | Current Version | Previous Version | Text Only | Print | Product List | Glossary Off
Versions: 1 2 3 4 5 6 7 8 9 10 11 12 13 14 15 16 17 18 19 20 21 22 23 24 25 26 27 28 29 30 31 32 33 34 35 36 37 38 39 40 41 42 43 44 45 46 47 48 49 50

000
ASUS43 KLOT 180106
RWRIL

ILLINOIS REGIONAL WEATHER ROUNDUP
NATIONAL WEATHER SERVICE CHICAGO/ROMEOVILLE IL
800 PM CDT THU APR 17 2014

NOTE: "FAIR" INDICATES FEW OR NO CLOUDS BELOW 12,000 FEET WITH NO
SIGNIFICANT WEATHER AND/OR OBSTRUCTIONS TO VISIBILITY.

* THESE STATIONS ARE NOT UNDER NWS QUALITY CONTROL. THEY ALSO MAY NOT
  REPORT WEATHER SUCH AS PRECIPITATION OR FOG.

ILZ001-002-007-009-015-016-024-180200-
NORTHWEST ILLINOIS

CITY           SKY/WX    TMP DP  RH WIND       PRES   REMARKS
MOLINE         CLOUDY    49  34  56 SW6       30.26R
STERLING*      CLOUDY    52  37  58 W5        30.24R
SAVANNA*       MOCLDY    52  37  54 W5        30.24R
$$

ILZ003-004-008-010-011-017-018-180200-
NORTH CENTRAL ILLINOIS

CITY           SKY/WX    TMP DP  RH WIND       PRES   REMARKS
ROCKFORD       CLOUDY    51  36  56 S5        30.25R
FREEPORT*      CLOUDY    54  39  57 W5        30.24S
ROCHELLE*      CLOUDY    51  37  59 W6        30.24R
DE KALB*       CLOUDY    51  37  59 SW7       30.24R
PERU*          CLOUDY    53  38  56 CALM      30.25R
$$

ILZ005-006-012>014-019>023-180200-
NORTHEAST ILLINOIS

CITY           SKY/WX    TMP DP  RH WIND       PRES   REMARKS
CHICAGO-OHARE  CLOUDY    56  37  49 W7        30.22R
CHICAGO-MIDWAY CLOUDY    57  39  51 W8        30.22R
AURORA         CLOUDY    52  39  61 W8        30.23R
LANSING*       CLOUDY    56  38  51 W6        30.23R
WAUKEGAN       CLOUDY    46  37  71 E3        30.22R
DUPAGE AIRPORT CLOUDY    53  38  56 W7        30.23R
KANKAKEE*      CLOUDY    56  42  60 W7        30.24R
WHEELING       CLOUDY    57  38  48 SW3       30.23R
MORRIS*        CLOUDY    54  37  52 W8        30.24R
NORTHERLY ISL    N/A     57  38  48 W5          N/A
$$

LMZ740>746-180200-
SOUTHERN LAKE MICHIGAN

STATION/POSITION SKY/WX   TEMP    WIND        PRES    VSBY  WAVE
                          AIR SEA DIR/SP/G                  HT/PER
                          (F)     (DEG/KT/KT) (MB)    (MI)  (FT/S)
WAUKEGAN HARBOR            46      10/  2/  3 1024.7R
HARRISON CRIB              57     270/ 11/ 13   N/A
BURNHAM HARBOR             57     260/  6/  9   N/A
CALUMET HARBOR             58     230/  5/  8 1023.9R
MICHIGAN CITY              50      CALM  /  1   N/A
$$

ILZ025>027-034>036-040-047-049-050-058-095>099-180200-
WEST-CENTRAL ILLINOIS

CITY           SKY/WX    TMP DP  RH WIND       PRES   REMARKS
QUINCY         CLOUDY    48  39  71 NW5       30.27S
GALESBURG*     CLOUDY    46  38  72 S6        30.27R
MACOMB*        CLOUDY    49  37  64 W3        30.29S
JACKSONVILLE*  CLOUDY    53  39  59 NW6       30.27R
PITTSFIELD*    CLOUDY    52  39  60 NW3       30.28R
$$

ILZ028>032-037-038-041>044-048-051>054-059>061-180200-
CENTRAL ILLINOIS

CITY           SKY/WX    TMP DP  RH WIND       PRES   REMARKS
PONTIAC        CLOUDY    55  41  58 W7        30.25R
BLOOMINGTON    CLOUDY    52  37  56 NW8       30.26R
DECATUR        CLOUDY    57  40  52 NW9       30.24S
PEORIA         CLOUDY    52  36  54 W5        30.27R
LACON*         CLOUDY    52  37  56 SW3       30.25S
LINCOLN*       CLOUDY    55  39  53 NW3       30.25S
SPRINGFIELD    CLOUDY    55  38  52 NW7       30.25S
TAYLORVILLE    CLOUDY    54  43  66 N8        30.24S
$$

ILZ033-039-045-046-055>057-062-063-180200-
EAST-CENTRAL ILLINOIS

CITY           SKY/WX    TMP DP  RH WIND       PRES   REMARKS
CHAMPAIGN      MOCLDY    54  40  59 W7        30.25R
RANTOUL*       MOCLDY    58  40  52 CALM      30.26R
MATTOON        MOCLDY    57  40  52 NW5       30.23S
PARIS*         PTCLDY    53  41  64 S6        30.25F
$$

ILZ079-100>102-180200-
SOUTHWEST ILLINOIS

CITY           SKY/WX    TMP DP  RH WIND       PRES   REMARKS
ALTON          PTCLDY    59  37  44 VRB3      30.23S
BELLEVILLE     CLOUDY    60  42  50 NW5       30.21R
CAHOKIA*       CLOUDY    61  40  45 N9        30.22R
SPARTA*        MOCLDY    61  34  36 S6        30.22S
$$

ILZ064>066-069>071-074>076-080>082-084>086-088>090-092>094-180200-
SOUTH-CENTRAL ILLINOIS

CITY           SKY/WX    TMP DP  RH WIND       PRES   REMARKS
CARBONDALE     PTCLDY    57  40  52 S6        30.22F
CAIRO*         CLEAR     61  43  51 CALM      30.23S
MARION         CLEAR     61  39  44 CALM      30.23F
MT. VERNON     PTCLDY    57  34  41 S3        30.23F
CENTRALIA*       N/A     59  37  44 CALM      30.22F
SALEM*         MOCLDY    62  37  40 CALM      30.23S
METROPOLIS*    CLEAR     60  37  42 CALM      30.22S
$$

ILZ067-068-072-073-078-083-087-091-180200-
SOUTHEAST ILLINOIS

CITY           SKY/WX    TMP DP  RH WIND       PRES   REMARKS
FAIRFIELD*     CLEAR     61  43  51 CALM      30.23S
HARRISBURG*    CLEAR     59  43  55 CALM      30.24S
ROBINSON*      MOCLDY    58  42  54 S3        30.25S
CARMI*         CLEAR     56  47  71 SE7       30.23S
$$

ABBREVIATIONS USED IN REMARKS
   TC - TEMPERATURE IN CELSIUS
  WCI - WIND CHILL INDEX
   HX - HEAT INDEX
  VSB - VISIBILITY
$$




USA.gov is the U.S. government's official web portal to all federal, state and local government web resources and services.